Location: Be?i?
(36.9044°N, 30.1006°E)
Time: 11:55:55
(UTC+00:00)

Cosmos 2297 Rocket - Pass Details

Date: 05 August 2024
Orbit: 837 x 844 km, 71.0° (Epoch: 08 September)

Event Time Altitude Azimuth Distance (km) Brightness Sun altitude
Rises 19:59:08 0° 347° (NNW) 3,408 6.4 -28.7°
Reaches altitude 10° 20:01:49 10° 356° (N) 2,470 5.3 -29.0°
Enters shadow 20:06:23 33° 48° (NE) 1,382 3.3 -29.5°
